Location: The Saddle
(36.8333°N, 80.3417°W)
Time: 19:48:28
(UTC-05:00)

A-11 Canister half - Pass Details

Date: 09 December 2023
Orbit: 1512 x 1687 km, 47.2° (Epoch: 26 February)

Event Time Altitude Azimuth Distance (km) Brightness Sun altitude
Rises 01:16:59 0° 270° (W) 4,727 - -70.4°
Reaches altitude 10° 01:20:11 10° 276° (W) 3,767 - -69.9°
Maximum altitude 01:29:25 49° 349° (N) 2,002 - -68.4°
Drops below altitude 10° 01:39:00 10° 63° (ENE) 3,903 - -66.8°
Exits shadow 01:39:21 - 64° (ENE) 4,002 11.4 -66.8°
Sets 01:42:24 0° 69° (ENE) 4,910 12.0 -66.3°
